This is the latest recevied weather packets stored in our database for station/object N8SDR. If no packets are shown the sender has not sent any weather packets the latest 10 day(s).
| Time | Temp. | Humidity | Pressure | Rain* | Wind** | Luminosity | Snow |
|---|---|---|---|---|---|---|---|
| 1778049302 | 8.33° C | 99% | 1004.5 hPa | 1.27 mm | - | 0 W/m² | - |
| 1778048999 | 8.33° C | 99% | 1004.5 hPa | 0 mm | - | 0 W/m² | - |
| 1778048697 | 8.33° C | 99% | 1004.2 hPa | 0 mm | - | 0 W/m² | - |
| 1778048394 | 8.33° C | 99% | 1004.2 hPa | 1.78 mm | - | 0 W/m² | - |
| 1778048090 | 8.33° C | 99% | 1004.3 hPa | 1.78 mm | - | 0 W/m² | - |
| 1778047788 | 8.33° C | 99% | 1004.2 hPa | 1.27 mm | - | 0 W/m² | - |
| 1778047486 | 8.33° C | 99% | 1004.3 hPa | 3.05 mm | - | 0 W/m² | - |
| 1778047183 | 8.33° C | 99% | 1004 hPa | 4.83 mm | - | 0 W/m² | - |
| 1778046880 | 8.33° C | 99% | 1004.2 hPa | 3.05 mm | - | 0 W/m² | - |
| 1778046576 | 8.33° C | 99% | 1004.2 hPa | 1.78 mm | - | 0 W/m² | - |
| 1778046273 | 8.33° C | 99% | 1004.2 hPa | 3.05 mm | - | 0 W/m² | - |
| 1778045969 | 8.33° C | 99% | 1004.2 hPa | 3.05 mm | - | 0 W/m² | - |
| 1778045668 | 8.89° C | 99% | 1004.1 hPa | 3.05 mm | - | 0 W/m² | - |
| 1778045366 | 8.89° C | 99% | 1004.4 hPa | 3.05 mm | - | 0 W/m² | - |
| 1778045064 | 8.89° C | 99% | 1004.6 hPa | 4.83 mm | - | 0 W/m² | - |
| 1778044761 | 8.89° C | 99% | 1004 hPa | 4.83 mm | - | 0 W/m² | - |
| 1778044458 | 8.89° C | 99% | 1004.4 hPa | 7.87 mm | - | 0 W/m² | - |
| 1778044155 | 9.44° C | 99% | 1004.8 hPa | 8.89 mm | - | 0 W/m² | - |
| 1778043852 | 9.44° C | 99% | 1004.6 hPa | 8.89 mm | - | 0 W/m² | - |
| 1778043549 | 9.44° C | 99% | 1004.5 hPa | 13.72 mm | - | 0 W/m² | - |
| 1778043246 | 9.44° C | 99% | 1004.1 hPa | 16.76 mm | - | 0 W/m² | - |
| 1778042943 | 9.44° C | 99% | 1004.1 hPa | 10.67 mm | - | 0 W/m² | - |
| 1778042641 | 9.44° C | 99% | 1004.3 hPa | 4.32 mm | - | 0 W/m² | - |
| 1778042338 | 9.44° C | 99% | 1003.9 hPa | 3.05 mm | - | 0 W/m² | - |
| 1778042035 | 10° C | 99% | 1003.7 hPa | 4.83 mm | - | 0 W/m² | - |
* Rain latest hour (hover to see other rain measurements)
** Current wind speed in m/s (hover to see current wind gust speed)